Flag for U.S.A. Weather past 2 weeks in Citrus Heights, California, U.S.A.

Now
75 °F

Passing clouds.


Feels Like: 78 °F
Forecast: 68 / 98 °F
Wind: 13 mph from Southwest

Location: Mather Field

Current Time: Jul 3, 2015 at 1:19:17 AM

Latest Report: Jul 2, 2015 at 11:30 PM


Visibility: 10 mi

Pressure: 29.88 "Hg

Humidity: 41%

Dew point: 50 °F

Location of Citrus HeightsLocation

Historic Weather in Citrus Heights — Graph

°F

Citrus Heights temperature yesterday

Maximum temperature yesterday: 93 °F (at 2:45 PM)
Minimum temperature yesterday: 73 °F (at 3:55 AM)
Average temperature yesterday: 82 °F

Past Weeks' High & Low Weather Summary

 TemperatureHumidityPressure
High106 °F (Jun 30, 5:45 PM)94% (Jun 29, 4:50 AM)30.02 "Hg (Jun 29, 4:50 AM)
Low50 °F (Jun 22, 4:45 AM)13% (Jun 20, 5:50 PM)29.74 "Hg (Jun 30, 5:45 PM)
Average79 °F39%29.88 "Hg
* Reported Jun 17 11:30 PM — Jul 2 11:30 PM, Citrus Heights, Weather by CustomWeather, © 2015

Note: Actual official high and low records may vary slightly from our data, if they occured in-between our weather recording intervals... More about our weather records

Advertising

Citrus Heights weather history for previous 24 hours

 ConditionsComfort  
Time TempWeatherWind HumidityBarometerVisibility
11:30 PM
Thu, Jul 2
75 °FPassing clouds.13 mph41%29.88 "Hg10 mi
10:48 PM75 °FPassing clouds.7 mph39%29.89 "Hg10 mi
9:45 PM77 °FPassing clouds.5 mph36%29.89 "Hg10 mi
8:45 PM81 °FBroken clouds.9 mph28%29.85 "Hg10 mi
7:47 PM84 °FPartly sunny.7 mph31%29.86 "Hg10 mi
6:50 PM86 °FPartly sunny.12 mph29%29.87 "Hg10 mi
5:45 PM90 °FPartly sunny.13 mph22%29.84 "Hg10 mi
3:45 PM93 °FScattered clouds.10 mph19%29.85 "Hg10 mi
2:45 PM93 °FScattered clouds.13 mph20%29.86 "Hg10 mi
12:51 PM90 °FPartly sunny.13 mph24%29.90 "Hg10 mi
11:58 AM86 °FPartly sunny.10 mph29%29.90 "Hg10 mi
10:45 AM84 °FPartly sunny.12 mph33%29.91 "Hg10 mi
9:45 AM82 °FPartly sunny.8 mph35%29.90 "Hg10 mi
8:45 AM79 °FPartly sunny.7 mph37%29.89 "Hg10 mi
7:45 AM79 °FPartly sunny.9 mph34%29.87 "Hg10 mi
6:45 AM79 °FPartly sunny.12 mph28%29.86 "Hg10 mi
5:55 AM73 °FPassing clouds.7 mph38%29.85 "Hg10 mi
4:55 AM75 °FPassing clouds.3 mph36%29.85 "Hg10 mi
3:55 AM73 °FPassing clouds.No wind36%29.86 "Hg10 mi
Weather by CustomWeather, © 2015

See weather overviewHow to use our weather pages